Regional Weather Roundup
Issued by NWS

Home | Current Version | Previous Version | Graphics & Text | Print | Product List | Glossary Off
Versions: 1 2 3 4 5 6 7 8 9 10 11 12 13 14 15 16 17 18 19 20 21 22 23 24 25 26 27 28 29 30 31 32 33 34 35 36 37 38 39 40 41 42 43 44 45 46 47 48 49 50

000
ASUS43 KMKX 261200
RWRWI

WISCONSIN REGIONAL WEATHER ROUNDUP
NATIONAL WEATHER SERVICE MILWAUKEE/SULLIVAN WI
600 AM CST WED NOV 26 2014

NOTE: "FAIR" INDICATES FEW OR NO CLOUDS BELOW 12,000 FEET WITH NO
SIGNIFICANT WEATHER AND/OR OBSTRUCTIONS TO VISIBILITY.

WIZ001-002-006>008-014>016-023>028-261300-
NORTHWEST WISCONSIN

CITY           SKY/WX    TMP DP  RH WIND       PRES   REMARKS
SUPERIOR ARPT  FLURRIES  19  17  91 CALM      30.13S
ASHLAND        LGT SNOW  19  16  88 CALM      30.13S FOG
6HR MIN TEMP:  14; 6HR MAX TEMP:  19; 6HR PCP: TRACE;

HAYWARD        CLOUDY    20  16  84 CALM      30.08S
6HR MIN TEMP:  19; 6HR MAX TEMP:  20;

SIREN          CLOUDY    22  17  82 CALM      30.08F
CUMBERLAND     CLOUDY    21  18  86 E3        30.07R
RICE LAKE      CLOUDY    22  17  83 E3        30.09S
CHETEK         CLOUDY    21  17  84 E3        30.08S
LADYSMITH      CLOUDY    22  18  85 E3        30.10R
EAU CLAIRE     NOT AVBL
MENOMONIE      MOCLDY    22  17  80 E7        30.08S WCI  14
NEW RICHMOND   CLOUDY    22  15  72 E8        30.06S WCI  13
OSCEOLA        CLOUDY    24  17  75 E6        30.10R WCI  17
$$

WIZ003>005-009-010-017-018-261300-
NORTH CENTRAL WISCONSIN

CITY           SKY/WX    TMP DP  RH WIND       PRES   REMARKS
MANITOWISH WTR CLOUDY    14  13  95 CALM      30.05F
ARBOR VITAE    CLOUDY    17  14  90 CALM      30.06S
WOODRUFF       CLOUDY    17  14  90 CALM      30.06S
RHINELANDER    CLOUDY    12  10  92 CALM      30.07S
6HR MIN TEMP:   5; 6HR MAX TEMP:  13;

EAGLE RIVER    CLOUDY    12   9  85 CALM      30.07R
LAND O LAKES   CLOUDY     8   6  89 CALM      30.07S
PHILLIPS       CLOUDY    17  14  89 CALM      30.06S
TOMAHAWK       CLOUDY    15  13  91 CALM      30.08S
MEDFORD        CLOUDY    17  14  88 SE3       30.06S
MERRILL        CLOUDY    15  14  93 CALM      30.08R
$$

WIZ029-030-035-036-043>047-261300-
CENTRAL WISCONSIN

CITY           SKY/WX    TMP DP  RH WIND       PRES   REMARKS
WAUSAU         CLOUDY    16  14  92 CALM      30.08S
6HR MIN TEMP:  12; 6HR MAX TEMP:  16;

MOSINEE        NOT AVBL
MARSHFIELD     CLOUDY    17  14  88 E3        30.09R
6HR MIN TEMP:  17; 6HR MAX TEMP:  21;

STEVENS POINT  CLOUDY    12  10  92 E3        30.10F
WAUPACA        PTCLDY    11   8  85 CALM      30.14F
WAUTOMA        NOT AVBL
WISC RAPIDS    CLOUDY    15  11  83 E3        30.12R
6HR MIN TEMP:  15; 6HR MAX TEMP:  18;

CAMP DOUGLAS   NOT AVBL
$$

WIZ011>013-019>022-031-037>040-048>050-261300-
NORTHEAST WISCONSIN

CITY           SKY/WX    TMP DP  RH WIND       PRES   REMARKS
ANTIGO         CLOUDY    14  13  94 SE3       30.08S
SHAWANO        CLOUDY    16  13  88 CALM      30.15F
OCONTO         CLOUDY     9   7  94 CALM      30.16S
STURGEON BAY   PTCLDY    18  12  79 CALM      30.15S
6HR MIN TEMP:  18; 6HR MAX TEMP:  21;

GREEN BAY      MOCLDY    14  11  87 W3        30.16R
6HR MIN TEMP:  11; 6HR MAX TEMP:  16;

MANITOWOC      NOT AVBL
APPLETON       CLOUDY    18  18 100 CALM      30.13F
CLINTONVILLE   CLOUDY    14  12  92 CALM      30.14F
OSHKOSH        MOCLDY    15  11  83 SE5       30.13F WCI   8
6HR MIN TEMP:   8; 6HR MAX TEMP:  16;

$$

WIZ032>034-041-042-053>061-261300-
SOUTHWEST WISCONSIN

CITY           SKY/WX    TMP DP  RH WIND       PRES   REMARKS
LA CROSSE      CLOUDY    20  15  81 E7        30.09R WCI  11
6HR MIN TEMP:  18; 6HR MAX TEMP:  20;

SPARTA         CLEAR     13  11  95 CALM      30.10S
VIROQUA        CLOUDY    15  15 100 E7        30.05R WCI   5
BOSCOBEL       PTCLDY    12   8  84 NE3       30.11R
6HR MIN TEMP:   8; 6HR MAX TEMP:  13;

PRAIRIE DU CHI MOCLDY    17  13  85 CALM      30.08S
PLATTEVILLE    MOCLDY    13  12  92 E9        30.08S WCI   1
$$

WIZ056-057-062-063-064-067-068-261300-
SOUTH CENTRAL WISCONSIN

CITY           SKY/WX    TMP DP  RH WIND       PRES   REMARKS
REEDSBURG      MOCLDY     9   7  91 CALM      30.09S
BARABOO/DELLS  MOCLDY    10   7  91 E7        30.08F WCI  -2
LONE ROCK      NOT AVBL
MINERAL POINT  LGT SNOW  18  14  86 E8        30.07R WCI   7
MADISON        MOCLDY    12   9  87 SE6       30.11F WCI   3
6HR MIN TEMP:   8; 6HR MAX TEMP:  14;

MIDDLETON      MOCLDY     8   4  83 CALM      30.10F
WATERTOWN      PTCLDY    10   8  93 CALM      30.13S
MONROE         FOG       14  12  92 E5        30.09S VSB 1/2 WCI   6
JANESVILLE     FOG       12   9  85 E3        30.13S VSB 1/2
$$

WIZ051-052-058>065-066-070>072-261300-
SOUTHEAST WISCONSIN

CITY           SKY/WX    TMP DP  RH WIND       PRES   REMARKS
MILWAUKEE      PTCLDY    16  11  80 S3        30.16R HAZE
6HR MIN TEMP:  14; 6HR MAX TEMP:  21;

WAUKESHA       NOT AVBL
MILWAUKEE/TIMM PTCLDY    14  12  92 CALM      30.16R FOG
RACINE         CLOUDY    16  13  88 W8        30.18R FOG     WCI   5
6HR MIN TEMP:  11; 6HR MAX TEMP:  18;

BURLINGTON     SNOW      13  12  95 CALM      30.15S VSB 1/2
KENOSHA        CLOUDY    17  14  88 NW5       30.16S FOG     WCI  10
6HR MIN TEMP:   9; 6HR MAX TEMP:  17;

FOND DU LAC    PTCLDY    11   6  81 CALM      30.14S
6HR MIN TEMP:   7; 6HR MAX TEMP:  15;

SHEBOYGAN      CLOUDY    19  15  84 CALM      30.14F
6HR MIN TEMP:  19; 6HR MAX TEMP:  21;

WEST BEND      CLOUDY    19  14  79 NE3       30.14S
JUNEAU         MOCLDY    11  10  92 E5        30.13S FOG     WCI   3
$$

LSZ147-162-261300-
LAKE SUPERIOR

STATION/POSITION TIME  TEMP    WIND        PRES    WAVE
                       AIR SEA DIR/SP/G            HT/PER
                 (UTC) (F)     (DEG/KT/KT) (MB)    (FT/S)
DEVILS ISLAND    1100   26     330/  4/  5 1020.8F
PORT WING        1140   20     150/  1/  3 1020.3R
SAXON HARBOR     1100   19     180/  2/  7 1020.0S
$$

LMZ867-665-643>646-261300-
LAKE MICHIGAN

STATION/POSITION TIME  TEMP    WIND        PRES    WAVE
                       AIR SEA DIR/SP/G            HT/PER
                 (UTC) (F)     (DEG/KT/KT) (MB)    (FT/S)
CHAMBERS ISLAND  1100   21     220/  1/  4 1021.3F
N MID LAKE BUOY  1050   29 42  230/  4/  8 1021.7F   1/ 3
NORTHPORT PIER   1106   22     280/  4/  5 1021.0F
SISTER BAY       1043             CALM       N/A
ALGOMA LAKESHORE 0958             CALM       N/A
KEWAUNEE LAKESHO 1100   18      CALM  /  3 1020.2F
SHEBOYGAN LAKESH 1100   21 36  310/  6/  7 1022.3F
PORT WASHINGTON  1100   20     280/  5/  7 1022.0F
MILWAUKEE LAKESH 1100   20     300/  3/  4   N/A
S MID LAKE BUOY  1050   28 42     CALM     1021.8F   1/ 3
KENOSHA   LAKESH 1100   18     280/  5/  7 1021.0S
$$

TC  - TEMPERATURE IN CELSIUS
VSB - VISIBILITY IN STATUTE MILES
WCI - WIND CHILL INDEX
HX  - HEAT INDEX




USA.gov is the U.S. government's official web portal to all federal, state and local government web resources and services.